Flag for Netherlands Weather past 2 weeks in Emmen, Netherlands

Now
64 °F

Mild.


Feels Like: 64 °F
Forecast: 54 / 76 °F
Wind: 2 mph from Northeast

Location: Meppen

Current Time: Aug 4, 2015 at 3:34:41 AM

Latest Report: Aug 4, 2015 at 3:00 AM


Visibility: 5 mi

Pressure: 29.88 "Hg

Humidity: 72%

Dew point: 54 °F

Location of EmmenLocation

Historic Weather in Emmen — Graph

°F

Emmen temperature yesterday

Maximum temperature yesterday: 89 °F (at 4:00 PM)
Minimum temperature yesterday: 57 °F (at 7:00 AM)
Average temperature yesterday: 78 °F

Past Weeks' High & Low Weather Summary

 TemperatureHumidityPressure
High89 °F (Aug 3, 4:00 PM)93% (Jul 20, 6:00 AM)30.13 "Hg (Jul 20, 6:00 AM)
Low48 °F (Jul 31, 7:00 AM)24% (Aug 3, 6:00 PM)29.38 "Hg (Jul 25, 4:00 PM)
Average63 °F71%29.81 "Hg
* Reported Jul 20 2:00 AM — Aug 4 2:00 AM, Emmen, Weather by CustomWeather, © 2015

Note: Actual official high and low records may vary slightly from our data, if they occured in-between our weather recording intervals... More about our weather records

Advertising

Emmen weather history for previous 24 hours

 ConditionsComfort  
Time TempWeatherWind HumidityBarometerVisibility
2:00 AM
Tue, Aug 4
64 °FMild.2 mph72%29.90 "Hg5 mi
1:00 AM67 °FMild.3 mph69%29.92 "Hg5 mi
12:00 AM70 °FMild.3 mph67%29.93 "Hg5 mi
10:00 PM
Mon, Aug 3
74 °FMild.2 mph53%29.92 "Hg6 mi
9:00 PM81 °FPleasantly warm.2 mph39%29.90 "Hg6 mi
8:00 PM84 °FPleasantly warm.2 mph34%29.90 "Hg5 mi
7:00 PM88 °FPleasantly warm.3 mph27%29.90 "Hg6 mi
6:00 PM89 °FHot.6 mph24%29.91 "Hg6 mi
4:00 PM89 °FPartly sunny.5 mph25%29.93 "Hg28 mi
3:00 PM87 °FScattered clouds.5 mph30%29.94 "Hg28 mi
2:00 PM85 °FPassing clouds.5 mph32%29.95 "Hg25 mi
1:00 PM84 °FPassing clouds.3 mph34%29.96 "Hg25 mi
12:00 PM81 °FScattered clouds.2 mph37%29.97 "Hg25 mi
10:00 AM72 °FPassing clouds.2 mph48%29.98 "Hg25 mi
9:00 AM67 °FPassing clouds.2 mph58%29.98 "Hg25 mi
8:00 AM62 °FPassing clouds.2 mph66%29.99 "Hg22 mi
7:00 AM57 °FPassing clouds.2 mph75%30.00 "Hg19 mi
Weather by CustomWeather, © 2015

See weather overviewHow to use our weather pages